Powrót do katalogu

IRIDIUM 121

AktywnyŁącznośćPO
NORAD 42812·PAYLOAD·🇺🇸 United States

Wystrzelony Jun 25, 2017 z Vandenberg Space Force Base

Loading…

Następne Przeloty (najbliższe 24 godziny)

TLE

ŚwieżeSource: CelesTrak SupGP

Epoka: Sep 14, 2026, 10:03 UTC

1 42812C 17039K   26257.41909722 -.00001267  00000+0 -45319-3 0  2572
2 42812  86.3978 316.3947 0002215  96.0707 354.3221 14.34216065    15

Śledź IRIDIUM 121 w czasie rzeczywistym z AllMySat

Download on the App Store